Terminal Aerodrome Forecast
Issued by NWS

Home | Current Version | Previous Version | Text Only | Print | Product List | Glossary Off
Versions: 1 2 3 4 5 6 7 8 9 10 11 12 13 14 15 16 17

000
FTUS43 KMPX 290700 AAA
TAFRWF
TAF AMD
KRWF 290714Z 2907/3006 13005KT 1/2SM FG VV002
     FM291400 18003KT 3SM BR BKN004 OVC008
     FM291600 25005KT 6SM BR BKN007 OVC025
     FM291900 VRB03KT P6SM SCT025 BKN120=

USA.gov is the U.S. government's official web portal to all federal, state and local government web resources and services.